Time,TemperatureF,DewpointF,PressureIn,WindDirection,WindDirectionDegrees,WindSpeedMPH,WindSpeedGustMPH,Humidity,HourlyPrecipIn,Conditions,Clouds,dailyrainin,SoftwareType,DateUTC
2013-10-24 00:02:00,42.4,37.9,30.06,SW,225,0.0,2.0,84,0.00,,,0.00,meteohub,2013-10-24 07:02:00,
2013-10-24 00:07:00,42.1,37.6,30.07,SW,225,0.0,1.0,84,0.00,,,0.00,meteohub,2013-10-24 07:07:00,
2013-10-24 00:12:00,41.9,37.8,30.07,SW,225,0.0,0.0,85,0.00,,,0.00,meteohub,2013-10-24 07:12:00,
2013-10-24 00:17:00,41.7,37.6,30.07,SW,225,0.0,0.0,85,0.00,,,0.00,meteohub,2013-10-24 07:17:00,
2013-10-24 00:22:00,41.7,37.6,30.07,SW,225,0.0,0.0,85,0.00,,,0.00,meteohub,2013-10-24 07:22:00,
2013-10-24 00:27:00,41.4,37.2,30.07,SW,225,0.0,1.0,85,0.00,,,0.00,meteohub,2013-10-24 07:27:00,
2013-10-24 00:32:00,41.4,37.2,30.08,SW,225,0.0,1.0,85,0.00,,,0.00,meteohub,2013-10-24 07:32:00,
2013-10-24 00:37:00,41.2,37.0,30.07,SE,135,1.0,1.0,85,0.00,,,0.00,meteohub,2013-10-24 07:37:00,
2013-10-24 00:42:00,41.0,37.2,30.07,SW,225,2.0,2.0,86,0.00,,,0.00,meteohub,2013-10-24 07:42:00,
2013-10-24 00:47:00,40.8,37.2,30.07,SW,225,1.0,2.0,87,0.00,,,0.00,meteohub,2013-10-24 07:47:00,
2013-10-24 00:52:00,40.5,36.9,30.07,SW,225,0.0,2.0,87,0.00,,,0.00,meteohub,2013-10-24 07:52:00,
2013-10-24 00:57:00,40.3,36.7,30.07,SW,225,2.0,2.0,87,0.00,,,0.00,meteohub,2013-10-24 07:57:00,
2013-10-24 01:02:00,40.1,36.5,30.07,SW,225,2.0,2.0,87,0.00,,,0.00,meteohub,2013-10-24 08:02:00,
2013-10-24 01:07:00,39.7,36.1,30.07,SW,225,1.0,2.0,87,0.00,,,0.00,meteohub,2013-10-24 08:07:00,
2013-10-24 01:12:00,39.7,36.1,30.08,SW,225,2.0,2.0,87,0.00,,,0.00,meteohub,2013-10-24 08:12:00,
2013-10-24 01:17:00,39.6,36.0,30.07,SW,225,2.0,2.0,87,0.00,,,0.00,meteohub,2013-10-24 08:17:00,
2013-10-24 01:22:00,39.4,35.8,30.07,SW,225,0.0,2.0,87,0.00,,,0.00,meteohub,2013-10-24 08:22:00,
2013-10-24 01:27:00,39.2,35.6,30.08,SW,225,1.0,2.0,87,0.00,,,0.00,meteohub,2013-10-24 08:27:00,
2013-10-24 01:32:00,39.0,35.8,30.07,SW,225,0.0,2.0,88,0.00,,,0.00,meteohub,2013-10-24 08:32:00,
2013-10-24 01:37:00,38.8,35.6,30.08,SW,225,0.0,2.0,88,0.00,,,0.00,meteohub,2013-10-24 08:37:00,
2013-10-24 01:42:00,38.7,35.1,30.08,SW,225,0.0,1.0,87,0.00,,,0.00,meteohub,2013-10-24 08:42:00,
2013-10-24 01:47:00,38.3,34.7,30.07,SW,225,0.0,1.0,87,0.00,,,0.00,meteohub,2013-10-24 08:47:00,
2013-10-24 01:52:00,38.1,34.9,30.07,East,90,1.0,1.0,88,0.00,,,0.00,meteohub,2013-10-24 08:52:00,
2013-10-24 01:57:00,38.1,34.9,30.08,East,90,2.0,2.0,88,0.00,,,0.00,meteohub,2013-10-24 08:57:00,
2013-10-24 02:02:00,38.1,34.9,30.08,SE,135,2.0,2.0,88,0.00,,,0.00,meteohub,2013-10-24 09:02:00,
2013-10-24 02:07:00,38.3,35.4,30.08,SE,135,2.0,2.0,89,0.00,,,0.00,meteohub,2013-10-24 09:07:00,
2013-10-24 02:12:00,38.3,35.4,30.08,SE,135,2.0,2.0,89,0.00,,,0.00,meteohub,2013-10-24 09:12:00,
2013-10-24 02:17:00,38.1,35.2,30.08,East,90,1.0,2.0,89,0.00,,,0.00,meteohub,2013-10-24 09:17:00,
2013-10-24 02:22:00,38.1,35.2,30.08,East,90,1.0,2.0,89,0.00,,,0.00,meteohub,2013-10-24 09:22:00,
2013-10-24 02:27:00,37.9,35.1,30.08,SE,135,2.0,2.0,89,0.00,,,0.00,meteohub,2013-10-24 09:27:00,
2013-10-24 02:32:00,37.9,35.1,30.08,SE,135,2.0,2.0,89,0.00,,,0.00,meteohub,2013-10-24 09:32:00,
2013-10-24 02:37:00,37.9,35.1,30.08,SE,135,1.0,2.0,89,0.00,,,0.00,meteohub,2013-10-24 09:37:00,
2013-10-24 02:42:00,37.6,34.7,30.08,East,90,2.0,2.0,89,0.00,,,0.00,meteohub,2013-10-24 09:42:00,
2013-10-24 02:47:00,37.8,34.9,30.08,SE,135,2.0,3.0,89,0.00,,,0.00,meteohub,2013-10-24 09:47:00,
2013-10-24 02:52:00,37.6,34.7,30.08,SE,135,2.0,3.0,89,0.00,,,0.00,meteohub,2013-10-24 09:52:00,
2013-10-24 02:57:00,37.6,34.7,30.08,SE,135,2.0,3.0,89,0.00,,,0.00,meteohub,2013-10-24 09:57:00,
2013-10-24 03:02:00,37.4,34.5,30.07,SE,135,2.0,2.0,89,0.00,,,0.00,meteohub,2013-10-24 10:02:00,
2013-10-24 03:07:00,37.4,34.7,30.08,SE,135,3.0,3.0,90,0.00,,,0.00,meteohub,2013-10-24 10:07:00,
2013-10-24 03:12:00,37.4,34.7,30.08,SE,135,1.0,3.0,90,0.00,,,0.00,meteohub,2013-10-24 10:12:00,
2013-10-24 03:17:00,37.4,34.7,30.08,South,180,1.0,3.0,90,0.00,,,0.00,meteohub,2013-10-24 10:17:00,
2013-10-24 03:22:00,37.0,33.3,30.08,SW,225,1.0,3.0,86,0.00,,,0.00,meteohub,2013-10-24 10:22:00,
2013-10-24 03:27:00,36.7,32.5,30.07,South,180,1.0,2.0,85,0.00,,,0.00,meteohub,2013-10-24 10:27:00,
2013-10-24 03:32:00,36.5,32.7,30.08,South,180,1.0,2.0,86,0.00,,,0.00,meteohub,2013-10-24 10:32:00,
2013-10-24 03:37:00,36.5,32.7,30.08,SE,135,2.0,2.0,86,0.00,,,0.00,meteohub,2013-10-24 10:37:00,
2013-10-24 03:42:00,36.3,32.5,30.08,SE,135,2.0,2.0,86,0.00,,,0.00,meteohub,2013-10-24 10:42:00,
2013-10-24 03:47:00,36.5,33.1,30.08,SE,135,2.0,3.0,87,0.00,,,0.00,meteohub,2013-10-24 10:47:00,
2013-10-24 03:52:00,36.5,33.1,30.08,East,90,2.0,3.0,87,0.00,,,0.00,meteohub,2013-10-24 10:52:00,
2013-10-24 03:57:00,36.7,33.4,30.08,SE,135,2.0,3.0,88,0.00,,,0.00,meteohub,2013-10-24 10:57:00,
2013-10-24 04:02:00,36.7,33.4,30.08,SE,135,1.0,2.0,88,0.00,,,0.00,meteohub,2013-10-24 11:02:00,
2013-10-24 04:07:00,36.7,33.4,30.07,SE,135,1.0,2.0,88,0.00,,,0.00,meteohub,2013-10-24 11:07:00,
2013-10-24 04:12:00,36.3,33.1,30.08,SE,135,2.0,2.0,88,0.00,,,0.00,meteohub,2013-10-24 11:12:00,
2013-10-24 04:17:00,36.1,32.9,30.08,SE,135,1.0,2.0,88,0.00,,,0.00,meteohub,2013-10-24 11:17:00,
2013-10-24 04:22:00,36.1,32.9,30.07,SE,135,0.0,2.0,88,0.00,,,0.00,meteohub,2013-10-24 11:22:00,
2013-10-24 04:27:00,36.0,32.7,30.07,SE,135,0.0,2.0,88,0.00,,,0.00,meteohub,2013-10-24 11:27:00,
2013-10-24 04:32:00,35.6,32.4,30.07,South,180,1.0,1.0,88,0.00,,,0.00,meteohub,2013-10-24 11:32:00,
2013-10-24 04:37:00,35.4,32.5,30.07,SSE,158,1.0,1.0,89,0.00,,,0.00,meteohub,2013-10-24 11:37:00,
2013-10-24 04:42:00,35.2,32.4,30.07,SE,135,0.0,1.0,89,0.00,,,0.00,meteohub,2013-10-24 11:42:00,
2013-10-24 04:47:00,35.1,32.2,30.07,SE,135,1.0,1.0,89,0.00,,,0.00,meteohub,2013-10-24 11:47:00,
2013-10-24 04:52:00,35.1,32.2,30.07,SE,135,0.0,1.0,89,0.00,,,0.00,meteohub,2013-10-24 11:52:00,
2013-10-24 04:57:00,34.9,32.0,30.07,South,180,1.0,1.0,89,0.00,,,0.00,meteohub,2013-10-24 11:57:00,
2013-10-24 05:02:00,34.9,32.0,30.08,SW,225,2.0,2.0,89,0.00,,,0.00,meteohub,2013-10-24 12:02:00,
2013-10-24 05:07:00,34.9,32.2,30.07,SW,225,1.0,2.0,90,0.00,,,0.00,meteohub,2013-10-24 12:07:00,
2013-10-24 05:12:00,34.7,32.0,30.08,East,90,0.0,2.0,90,0.00,,,0.00,meteohub,2013-10-24 12:12:00,
2013-10-24 05:17:00,34.7,32.0,30.07,SW,225,2.0,2.0,90,0.00,,,0.00,meteohub,2013-10-24 12:17:00,
2013-10-24 05:22:00,34.5,31.8,30.08,SW,225,1.0,2.0,90,0.00,,,0.00,meteohub,2013-10-24 12:22:00,
2013-10-24 05:27:00,34.5,31.8,30.07,South,180,1.0,2.0,90,0.00,,,0.00,meteohub,2013-10-24 12:27:00,
2013-10-24 05:32:00,34.5,31.8,30.08,South,180,1.0,2.0,90,0.00,,,0.00,meteohub,2013-10-24 12:32:00,
2013-10-24 05:37:00,34.5,32.2,30.07,SE,135,0.0,2.0,91,0.00,,,0.00,meteohub,2013-10-24 12:37:00,
2013-10-24 05:42:00,34.5,32.2,30.07,South,180,1.0,1.0,91,0.00,,,0.00,meteohub,2013-10-24 12:42:00,
2013-10-24 05:47:00,34.5,32.2,30.08,SE,135,1.0,2.0,91,0.00,,,0.00,meteohub,2013-10-24 12:47:00,
2013-10-24 05:52:00,34.5,32.2,30.08,NE,45,1.0,2.0,91,0.00,,,0.00,meteohub,2013-10-24 12:52:00,
2013-10-24 05:57:00,34.5,32.2,30.08,SE,135,0.0,2.0,91,0.00,,,0.00,meteohub,2013-10-24 12:57:00,
2013-10-24 06:02:00,34.3,32.0,30.08,South,180,0.0,2.0,91,0.00,,,0.00,meteohub,2013-10-24 13:02:00,
2013-10-24 06:07:00,34.2,31.8,30.08,South,180,1.0,1.0,91,0.00,,,0.00,meteohub,2013-10-24 13:07:00,
2013-10-24 06:12:00,34.0,31.8,30.08,South,180,0.0,1.0,92,0.00,,,0.00,meteohub,2013-10-24 13:12:00,
2013-10-24 06:17:00,34.2,32.0,30.07,SE,135,1.0,2.0,92,0.00,,,0.00,meteohub,2013-10-24 13:17:00,
2013-10-24 06:22:00,34.2,32.0,30.08,SE,135,1.0,2.0,92,0.00,,,0.00,meteohub,2013-10-24 13:22:00,
2013-10-24 06:27:00,34.0,31.8,30.07,SE,135,1.0,2.0,92,0.00,,,0.00,meteohub,2013-10-24 13:27:00,
2013-10-24 06:32:00,34.0,31.8,30.07,SE,135,2.0,2.0,92,0.00,,,0.00,meteohub,2013-10-24 13:32:00,
2013-10-24 06:37:00,33.8,31.6,30.07,SE,135,0.0,2.0,92,0.00,,,0.00,meteohub,2013-10-24 13:37:00,
2013-10-24 06:42:00,33.8,31.6,30.07,SE,135,0.0,2.0,92,0.00,,,0.00,meteohub,2013-10-24 13:42:00,
2013-10-24 06:47:00,33.8,31.6,30.08,SE,135,0.0,2.0,92,0.00,,,0.00,meteohub,2013-10-24 13:47:00,
2013-10-24 06:52:00,33.8,32.0,30.07,SE,135,0.0,1.0,93,0.00,,,0.00,meteohub,2013-10-24 13:52:00,
2013-10-24 06:57:00,33.6,32.0,30.07,East,90,0.0,2.0,94,0.00,,,0.00,meteohub,2013-10-24 13:57:00,
2013-10-24 07:02:00,33.6,32.0,30.07,East,90,0.0,2.0,94,0.00,,,0.00,meteohub,2013-10-24 14:02:00,
2013-10-24 07:07:00,33.6,32.0,30.07,East,90,0.0,2.0,94,0.00,,,0.00,meteohub,2013-10-24 14:07:00,
2013-10-24 07:12:00,34.0,32.2,30.07,ESE,113,2.0,4.0,93,0.00,,,0.00,meteohub,2013-10-24 14:12:00,
2013-10-24 07:18:00,34.5,32.9,30.07,SE,135,1.0,4.0,94,0.00,,,0.00,meteohub,2013-10-24 14:18:00,
2013-10-24 07:24:00,34.7,33.1,30.07,SE,135,1.0,4.0,94,0.00,,,0.00,meteohub,2013-10-24 14:24:00,
2013-10-24 07:30:00,34.7,33.1,30.08,SE,135,2.0,2.0,94,0.00,,,0.00,meteohub,2013-10-24 14:30:00,
2013-10-24 07:36:00,34.9,33.6,30.07,SE,135,2.0,2.0,95,0.00,,,0.00,meteohub,2013-10-24 14:36:00,
2013-10-24 07:42:00,34.9,33.6,30.07,SE,135,1.0,2.0,95,0.00,,,0.00,meteohub,2013-10-24 14:42:00,
2013-10-24 07:47:00,34.9,33.6,30.08,SE,135,1.0,2.0,95,0.00,,,0.00,meteohub,2013-10-24 14:47:00,
2013-10-24 07:52:00,34.7,33.1,30.08,SE,135,1.0,2.0,94,0.00,,,0.00,meteohub,2013-10-24 14:52:00,
2013-10-24 07:57:00,35.2,34.0,30.08,SE,135,2.0,2.0,95,0.00,,,0.00,meteohub,2013-10-24 14:57:00,
2013-10-24 08:02:00,36.0,34.3,30.08,East,90,1.0,2.0,94,0.00,,,0.00,meteohub,2013-10-24 15:02:00,
2013-10-24 08:07:00,36.5,34.9,30.08,SE,135,2.0,2.0,94,0.00,,,0.00,meteohub,2013-10-24 15:07:00,
2013-10-24 08:12:00,37.0,35.4,30.08,East,90,2.0,3.0,94,0.00,,,0.00,meteohub,2013-10-24 15:12:00,
2013-10-24 08:17:00,37.8,37.0,30.09,East,90,2.0,3.0,97,0.00,,,0.00,meteohub,2013-10-24 15:17:00,
2013-10-24 08:22:00,38.1,37.0,30.08,ESE,113,3.0,4.0,96,0.00,,,0.00,meteohub,2013-10-24 15:22:00,
2013-10-24 08:27:00,38.8,37.6,30.08,East,90,4.0,4.0,95,0.00,,,0.00,meteohub,2013-10-24 15:27:00,
2013-10-24 08:32:00,39.4,37.6,30.08,East,90,3.0,5.0,93,0.00,,,0.00,meteohub,2013-10-24 15:32:00,
2013-10-24 08:37:00,40.3,38.1,30.08,NE,45,4.0,5.0,92,0.00,,,0.00,meteohub,2013-10-24 15:37:00,
2013-10-24 08:42:00,41.0,38.3,30.09,East,90,4.0,5.0,90,0.00,,,0.00,meteohub,2013-10-24 15:42:00,
2013-10-24 08:47:00,41.5,38.5,30.09,East,90,4.0,4.0,89,0.00,,,0.00,meteohub,2013-10-24 15:47:00,
2013-10-24 08:52:00,42.1,38.1,30.09,East,90,3.0,4.0,86,0.00,,,0.00,meteohub,2013-10-24 15:52:00,
2013-10-24 08:57:00,42.4,38.3,30.09,East,90,3.0,4.0,85,0.00,,,0.00,meteohub,2013-10-24 15:57:00,
2013-10-24 09:02:00,42.8,37.8,30.09,East,90,2.0,4.0,82,0.00,,,0.00,meteohub,2013-10-24 16:02:00,
2013-10-24 09:07:00,43.5,38.1,30.09,NE,45,2.0,4.0,81,0.00,,,0.00,meteohub,2013-10-24 16:07:00,
2013-10-24 09:12:00,44.6,38.5,30.09,East,90,4.0,4.0,79,0.00,,,0.00,meteohub,2013-10-24 16:12:00,
2013-10-24 09:17:00,45.1,39.0,30.09,East,90,4.0,6.0,79,0.00,,,0.00,meteohub,2013-10-24 16:17:00,
2013-10-24 09:22:00,45.9,39.4,30.09,East,90,4.0,7.0,78,0.00,,,0.00,meteohub,2013-10-24 16:22:00,
2013-10-24 09:27:00,46.2,39.0,30.09,East,90,5.0,7.0,76,0.00,,,0.00,meteohub,2013-10-24 16:27:00,
2013-10-24 09:32:00,46.8,38.8,30.09,East,90,4.0,8.0,74,0.00,,,0.00,meteohub,2013-10-24 16:32:00,
2013-10-24 09:37:00,47.1,38.8,30.09,East,90,3.0,8.0,73,0.00,,,0.00,meteohub,2013-10-24 16:37:00,
2013-10-24 09:42:00,47.7,39.4,30.09,SE,135,4.0,8.0,73,0.00,,,0.00,meteohub,2013-10-24 16:42:00,
2013-10-24 09:47:00,47.7,39.0,30.09,SE,135,4.0,8.0,72,0.00,,,0.00,meteohub,2013-10-24 16:47:00,
2013-10-24 09:52:00,48.2,39.2,30.09,East,90,7.0,8.0,71,0.00,,,0.00,meteohub,2013-10-24 16:52:00,
2013-10-24 09:57:00,48.4,39.0,30.09,NE,45,4.0,8.0,70,0.00,,,0.00,meteohub,2013-10-24 16:57:00,
2013-10-24 10:02:00,48.7,39.4,30.09,East,90,4.0,8.0,70,0.00,,,0.00,meteohub,2013-10-24 17:02:00,
2013-10-24 10:07:00,49.6,40.3,30.09,NE,45,5.0,7.0,70,0.00,,,0.00,meteohub,2013-10-24 17:07:00,
2013-10-24 10:12:00,50.0,39.9,30.09,North,0,4.0,7.0,68,0.00,,,0.00,meteohub,2013-10-24 17:12:00,
2013-10-24 10:17:00,50.0,39.6,30.09,NE,45,4.0,7.0,67,0.00,,,0.00,meteohub,2013-10-24 17:17:00,
2013-10-24 10:22:00,50.4,39.7,30.09,ENE,68,4.0,7.0,67,0.00,,,0.00,meteohub,2013-10-24 17:22:00,
2013-10-24 10:27:00,50.9,40.3,30.09,ESE,113,3.0,6.0,67,0.00,,,0.00,meteohub,2013-10-24 17:27:00,
2013-10-24 10:32:00,51.4,40.5,30.08,East,90,2.0,6.0,66,0.00,,,0.00,meteohub,2013-10-24 17:32:00,
2013-10-24 10:37:00,51.8,40.5,30.08,NE,45,2.0,6.0,65,0.00,,,0.00,meteohub,2013-10-24 17:37:00,
2013-10-24 10:42:00,52.3,41.0,30.08,East,90,4.0,6.0,65,0.00,,,0.00,meteohub,2013-10-24 17:42:00,
2013-10-24 10:47:00,52.9,41.0,30.08,NE,45,3.0,6.0,64,0.00,,,0.00,meteohub,2013-10-24 17:47:00,
2013-10-24 10:52:00,53.4,41.5,30.09,SE,135,2.0,6.0,64,0.00,,,0.00,meteohub,2013-10-24 17:52:00,
2013-10-24 10:57:00,54.0,41.7,30.08,East,90,2.0,6.0,63,0.00,,,0.00,meteohub,2013-10-24 17:57:00,
2013-10-24 11:02:00,54.3,42.1,30.09,South,180,2.0,4.0,63,0.00,,,0.00,meteohub,2013-10-24 18:02:00,
2013-10-24 11:07:00,54.9,42.1,30.08,South,180,2.0,3.0,62,0.00,,,0.00,meteohub,2013-10-24 18:07:00,
2013-10-24 11:12:00,55.2,42.1,30.09,SW,225,2.0,3.0,61,0.00,,,0.00,meteohub,2013-10-24 18:12:00,
2013-10-24 11:17:00,55.9,43.2,30.08,NW,315,2.0,3.0,62,0.00,,,0.00,meteohub,2013-10-24 18:17:00,
2013-10-24 11:22:00,56.7,43.7,30.09,NE,45,2.0,4.0,62,0.00,,,0.00,meteohub,2013-10-24 18:22:00,
2013-10-24 11:27:00,57.0,43.3,30.08,NW,315,2.0,4.0,60,0.00,,,0.00,meteohub,2013-10-24 18:27:00,
2013-10-24 11:32:00,57.4,43.2,30.08,NE,45,4.0,4.0,59,0.00,,,0.00,meteohub,2013-10-24 18:32:00,
2013-10-24 11:37:00,58.1,43.3,30.08,NE,45,3.0,4.0,58,0.00,,,0.00,meteohub,2013-10-24 18:37:00,
2013-10-24 11:42:00,58.6,43.9,30.08,NW,315,1.0,4.0,58,0.00,,,0.00,meteohub,2013-10-24 18:42:00,
2013-10-24 11:47:00,59.5,44.2,30.08,SW,225,2.0,4.0,57,0.00,,,0.00,meteohub,2013-10-24 18:47:00,
2013-10-24 11:52:00,60.1,43.9,30.08,NE,45,3.0,3.0,55,0.00,,,0.00,meteohub,2013-10-24 18:52:00,
2013-10-24 11:57:00,60.8,44.1,30.08,East,90,3.0,3.0,54,0.00,,,0.00,meteohub,2013-10-24 18:57:00,
2013-10-24 12:02:00,61.2,43.9,30.07,NNW,338,4.0,4.0,53,0.00,,,0.00,meteohub,2013-10-24 19:02:00,
2013-10-24 12:07:00,61.7,43.9,30.08,NE,45,2.0,4.0,52,0.00,,,0.00,meteohub,2013-10-24 19:07:00,
2013-10-24 12:12:00,61.9,44.1,30.07,North,0,3.0,5.0,52,0.00,,,0.00,meteohub,2013-10-24 19:12:00,
2013-10-24 12:17:00,62.2,43.9,30.07,North,0,4.0,5.0,51,0.00,,,0.00,meteohub,2013-10-24 19:17:00,
2013-10-24 12:22:00,62.2,43.3,30.07,East,90,3.0,5.0,50,0.00,,,0.00,meteohub,2013-10-24 19:22:00,
2013-10-24 12:27:00,62.1,42.6,30.07,East,90,2.0,4.0,49,0.00,,,0.00,meteohub,2013-10-24 19:27:00,
2013-10-24 12:32:00,62.1,42.6,30.07,North,0,2.0,4.0,49,0.00,,,0.00,meteohub,2013-10-24 19:32:00,
2013-10-24 12:37:00,62.4,43.0,30.06,NE,45,2.0,4.0,49,0.00,,,0.00,meteohub,2013-10-24 19:37:00,
2013-10-24 12:42:00,62.2,42.3,30.06,SW,225,2.0,4.0,48,0.00,,,0.00,meteohub,2013-10-24 19:42:00,
2013-10-24 12:47:00,62.2,42.8,30.06,SW,225,2.0,4.0,49,0.00,,,0.00,meteohub,2013-10-24 19:47:00,
2013-10-24 12:52:00,62.2,42.8,30.06,NE,45,3.0,4.0,49,0.00,,,0.00,meteohub,2013-10-24 19:52:00,
2013-10-24 12:57:00,62.4,43.5,30.05,NW,315,3.0,4.0,50,0.00,,,0.00,meteohub,2013-10-24 19:57:00,
2013-10-24 13:02:00,62.1,42.6,30.05,SE,135,2.0,4.0,49,0.00,,,0.00,meteohub,2013-10-24 20:02:00,
2013-10-24 13:07:00,61.9,42.4,30.05,NE,45,2.0,4.0,49,0.00,,,0.00,meteohub,2013-10-24 20:07:00,
2013-10-24 13:12:00,62.4,43.0,30.05,NW,315,3.0,4.0,49,0.00,,,0.00,meteohub,2013-10-24 20:12:00,
2013-10-24 13:17:00,62.6,42.6,30.04,NNE,23,2.0,4.0,48,0.00,,,0.00,meteohub,2013-10-24 20:17:00,
2013-10-24 13:22:00,62.6,42.6,30.04,NW,315,2.0,4.0,48,0.00,,,0.00,meteohub,2013-10-24 20:22:00,
2013-10-24 13:27:00,62.2,42.3,30.04,SW,225,4.0,4.0,48,0.00,,,0.00,meteohub,2013-10-24 20:27:00,
2013-10-24 13:32:00,62.2,42.8,30.04,NW,315,4.0,4.0,49,0.00,,,0.00,meteohub,2013-10-24 20:32:00,
2013-10-24 13:37:00,62.2,42.8,30.04,NW,315,3.0,4.0,49,0.00,,,0.00,meteohub,2013-10-24 20:37:00,
2013-10-24 13:42:00,62.6,43.2,30.04,West,270,2.0,4.0,49,0.00,,,0.00,meteohub,2013-10-24 20:42:00,
2013-10-24 13:47:00,63.0,44.1,30.04,WNW,293,4.0,4.0,50,0.00,,,0.00,meteohub,2013-10-24 20:47:00,
2013-10-24 13:52:00,63.3,43.3,30.04,North,0,3.0,4.0,48,0.00,,,0.00,meteohub,2013-10-24 20:52:00,
2013-10-24 13:57:00,63.1,43.2,30.03,North,0,4.0,4.0,48,0.00,,,0.00,meteohub,2013-10-24 20:57:00,
2013-10-24 14:02:00,63.5,43.5,30.02,SE,135,1.0,4.0,48,0.00,,,0.00,meteohub,2013-10-24 21:02:00,
2013-10-24 14:07:00,63.5,43.5,30.03,NW,315,3.0,4.0,48,0.00,,,0.00,meteohub,2013-10-24 21:07:00,
2013-10-24 14:12:00,63.9,43.7,30.02,East,90,2.0,4.0,48,0.00,,,0.00,meteohub,2013-10-24 21:12:00,
2013-10-24 14:17:00,64.2,44.1,30.02,NW,315,2.0,4.0,48,0.00,,,0.00,meteohub,2013-10-24 21:17:00,
2013-10-24 14:22:00,64.4,42.6,30.02,NW,315,3.0,4.0,45,0.00,,,0.00,meteohub,2013-10-24 21:22:00,
2013-10-24 14:27:00,64.4,42.6,30.02,NW,315,3.0,5.0,45,0.00,,,0.00,meteohub,2013-10-24 21:27:00,
2013-10-24 14:32:00,64.8,44.1,30.02,NW,315,2.0,5.0,47,0.00,,,0.00,meteohub,2013-10-24 21:32:00,
2013-10-24 14:37:00,65.1,42.6,30.02,NW,315,3.0,5.0,44,0.00,,,0.00,meteohub,2013-10-24 21:37:00,
2013-10-24 14:42:00,65.1,42.1,30.02,North,0,3.0,4.0,43,0.00,,,0.00,meteohub,2013-10-24 21:42:00,
2013-10-24 14:47:00,65.3,41.5,30.02,West,270,2.0,4.0,42,0.00,,,0.00,meteohub,2013-10-24 21:47:00,
2013-10-24 14:52:00,65.7,41.9,30.02,North,0,1.0,5.0,42,0.00,,,0.00,meteohub,2013-10-24 21:52:00,
2013-10-24 14:57:00,65.8,42.1,30.02,NNE,23,4.0,5.0,42,0.00,,,0.00,meteohub,2013-10-24 21:57:00,
2013-10-24 15:02:00,65.8,42.1,30.02,NW,315,3.0,5.0,42,0.00,,,0.00,meteohub,2013-10-24 22:02:00,
2013-10-24 15:07:00,66.0,41.0,30.02,North,0,2.0,4.0,40,0.00,,,0.00,meteohub,2013-10-24 22:07:00,
2013-10-24 15:12:00,66.2,41.2,30.02,SE,135,4.0,5.0,40,0.00,,,0.00,meteohub,2013-10-24 22:12:00,
2013-10-24 15:17:00,66.6,39.6,30.02,NW,315,4.0,5.0,37,0.00,,,0.00,meteohub,2013-10-24 22:17:00,
2013-10-24 15:22:00,66.6,40.1,30.01,North,0,3.0,4.0,38,0.00,,,0.00,meteohub,2013-10-24 22:22:00,
2013-10-24 15:27:00,66.9,39.0,30.01,NW,315,2.0,4.0,36,0.00,,,0.00,meteohub,2013-10-24 22:27:00,
2013-10-24 15:32:00,67.1,39.2,30.02,South,180,3.0,4.0,36,0.00,,,0.00,meteohub,2013-10-24 22:32:00,
2013-10-24 15:37:00,67.3,39.4,30.01,NW,315,4.0,4.0,36,0.00,,,0.00,meteohub,2013-10-24 22:37:00,
2013-10-24 15:42:00,67.3,40.1,30.01,North,0,3.0,4.0,37,0.00,,,0.00,meteohub,2013-10-24 22:42:00,
2013-10-24 15:47:00,67.3,41.5,30.01,NW,315,7.0,8.0,39,0.00,,,0.00,meteohub,2013-10-24 22:47:00,
2013-10-24 15:52:00,67.3,42.1,30.01,NW,315,4.0,8.0,40,0.00,,,0.00,meteohub,2013-10-24 22:52:00,
2013-10-24 15:57:00,67.6,43.2,30.01,NE,45,4.0,8.0,41,0.00,,,0.00,meteohub,2013-10-24 22:57:00,
2013-10-24 16:02:00,67.6,43.2,30.01,North,0,4.0,7.0,41,0.00,,,0.00,meteohub,2013-10-24 23:02:00,
2013-10-24 16:07:00,67.3,43.3,30.01,NW,315,7.0,8.0,42,0.00,,,0.00,meteohub,2013-10-24 23:07:00,
2013-10-24 16:12:00,67.1,43.2,30.01,North,0,5.0,8.0,42,0.00,,,0.00,meteohub,2013-10-24 23:12:00,
2013-10-24 16:17:00,66.6,43.3,30.02,NE,45,4.0,8.0,43,0.00,,,0.00,meteohub,2013-10-24 23:17:00,
2013-10-24 16:22:00,66.7,43.5,30.02,SSW,203,3.0,8.0,43,0.00,,,0.00,meteohub,2013-10-24 23:22:00,
2013-10-24 16:27:00,67.1,43.9,30.01,NW,315,5.0,8.0,43,0.00,,,0.00,meteohub,2013-10-24 23:27:00,
2013-10-24 16:32:00,67.1,43.9,30.01,NW,315,4.0,8.0,43,0.00,,,0.00,meteohub,2013-10-24 23:32:00,
2013-10-24 16:37:00,66.9,43.7,30.01,West,270,7.0,8.0,43,0.00,,,0.00,meteohub,2013-10-24 23:37:00,
2013-10-24 16:42:00,66.7,43.5,30.02,NW,315,8.0,8.0,43,0.00,,,0.00,meteohub,2013-10-24 23:42:00,
2013-10-24 16:47:00,66.4,43.2,30.02,NW,315,4.0,8.0,43,0.00,,,0.00,meteohub,2013-10-24 23:47:00,
2013-10-24 16:52:00,66.2,43.7,30.02,NW,315,6.0,8.0,44,0.00,,,0.00,meteohub,2013-10-24 23:52:00,
2013-10-24 16:57:00,65.8,44.4,30.01,NW,315,5.0,10.0,46,0.00,,,0.00,meteohub,2013-10-24 23:57:00,
2013-10-24 17:02:00,65.8,44.4,30.01,NW,315,7.0,10.0,46,0.00,,,0.00,meteohub,2013-10-25 00:02:00,
2013-10-24 17:07:00,65.5,44.2,30.02,NW,315,7.0,7.0,46,0.00,,,0.00,meteohub,2013-10-25 00:07:00,
2013-10-24 17:12:00,65.3,44.6,30.02,NW,315,3.0,7.0,47,0.00,,,0.00,meteohub,2013-10-25 00:12:00,
2013-10-24 17:17:00,64.8,44.1,30.02,WNW,293,5.0,7.0,47,0.00,,,0.00,meteohub,2013-10-25 00:17:00,
2013-10-24 17:22:00,64.6,44.4,30.02,North,0,7.0,7.0,48,0.00,,,0.00,meteohub,2013-10-25 00:22:00,
2013-10-24 17:27:00,64.2,44.6,30.02,North,0,7.0,7.0,49,0.00,,,0.00,meteohub,2013-10-25 00:27:00,
2013-10-24 17:32:00,63.5,44.1,30.02,NW,315,4.0,7.0,49,0.00,,,0.00,meteohub,2013-10-25 00:32:00,
2013-10-24 17:37:00,62.8,43.9,30.02,NW,315,5.0,7.0,50,0.00,,,0.00,meteohub,2013-10-25 00:37:00,
2013-10-24 17:42:00,62.2,44.4,30.03,West,270,2.0,7.0,52,0.00,,,0.00,meteohub,2013-10-25 00:42:00,
2013-10-24 17:47:00,61.7,43.9,30.02,North,0,1.0,5.0,52,0.00,,,0.00,meteohub,2013-10-25 00:47:00,
2013-10-24 17:52:00,61.2,43.9,30.03,West,270,2.0,5.0,53,0.00,,,0.00,meteohub,2013-10-25 00:52:00,
2013-10-24 17:57:00,60.8,44.1,30.03,North,0,2.0,4.0,54,0.00,,,0.00,meteohub,2013-10-25 00:57:00,
2013-10-24 18:02:00,60.4,44.2,30.02,West,270,1.0,4.0,55,0.00,,,0.00,meteohub,2013-10-25 01:02:00,
2013-10-24 18:07:00,59.9,43.7,30.03,NW,315,2.0,4.0,55,0.00,,,0.00,meteohub,2013-10-25 01:07:00,
2013-10-24 18:12:00,59.5,43.9,30.03,SW,225,1.0,4.0,56,0.00,,,0.00,meteohub,2013-10-25 01:12:00,
2013-10-24 18:17:00,59.0,43.3,30.03,NW,315,1.0,2.0,56,0.00,,,0.00,meteohub,2013-10-25 01:17:00,
2013-10-24 18:22:00,58.3,43.5,30.03,SW,225,2.0,2.0,58,0.00,,,0.00,meteohub,2013-10-25 01:22:00,
2013-10-24 18:27:00,57.6,43.3,30.04,West,270,1.0,2.0,59,0.00,,,0.00,meteohub,2013-10-25 01:27:00,
2013-10-24 18:32:00,57.0,43.7,30.04,North,0,1.0,2.0,61,0.00,,,0.00,meteohub,2013-10-25 01:32:00,
2013-10-24 18:37:00,56.5,43.7,30.04,SW,225,1.0,2.0,62,0.00,,,0.00,meteohub,2013-10-25 01:37:00,
2013-10-24 18:42:00,55.9,43.2,30.03,SW,225,1.0,2.0,62,0.00,,,0.00,meteohub,2013-10-25 01:42:00,
2013-10-24 18:47:00,55.6,42.8,30.04,East,90,1.0,1.0,62,0.00,,,0.00,meteohub,2013-10-25 01:47:00,
2013-10-24 18:52:00,55.0,42.3,30.04,South,180,1.0,1.0,62,0.00,,,0.00,meteohub,2013-10-25 01:52:00,
2013-10-24 18:57:00,54.7,42.3,30.04,South,180,2.0,2.0,63,0.00,,,0.00,meteohub,2013-10-25 01:57:00,
2013-10-24 19:02:00,54.5,42.1,30.04,NW,315,2.0,2.0,63,0.00,,,0.00,meteohub,2013-10-25 02:02:00,
2013-10-24 19:07:00,54.5,42.1,30.04,NW,315,2.0,2.0,63,0.00,,,0.00,meteohub,2013-10-25 02:07:00,
2013-10-24 19:12:00,54.0,42.1,30.04,NE,45,1.0,2.0,64,0.00,,,0.00,meteohub,2013-10-25 02:12:00,
2013-10-24 19:17:00,53.6,41.7,30.04,North,0,2.0,2.0,64,0.00,,,0.00,meteohub,2013-10-25 02:17:00,
2013-10-24 19:22:00,53.4,42.3,30.04,SE,135,1.0,2.0,66,0.00,,,0.00,meteohub,2013-10-25 02:22:00,
2013-10-24 19:27:00,53.2,42.3,30.04,SW,225,1.0,2.0,66,0.00,,,0.00,meteohub,2013-10-25 02:27:00,
2013-10-24 19:32:00,52.9,42.3,30.04,SW,225,1.0,2.0,67,0.00,,,0.00,meteohub,2013-10-25 02:32:00,
2013-10-24 19:37:00,52.7,42.1,30.05,South,180,2.0,2.0,67,0.00,,,0.00,meteohub,2013-10-25 02:37:00,
2013-10-24 19:42:00,52.5,42.3,30.05,NW,315,2.0,2.0,68,0.00,,,0.00,meteohub,2013-10-25 02:42:00,
2013-10-24 19:47:00,52.5,42.3,30.05,South,180,0.0,2.0,68,0.00,,,0.00,meteohub,2013-10-25 02:47:00,
2013-10-24 19:52:00,52.3,42.4,30.05,North,0,1.0,2.0,69,0.00,,,0.00,meteohub,2013-10-25 02:52:00,
2013-10-24 19:57:00,52.3,42.4,30.05,South,180,1.0,2.0,69,0.00,,,0.00,meteohub,2013-10-25 02:57:00,
2013-10-24 20:02:00,52.2,42.3,30.06,SE,135,1.0,2.0,69,0.00,,,0.00,meteohub,2013-10-25 03:02:00,
2013-10-24 20:07:00,52.0,42.1,30.06,South,180,1.0,2.0,69,0.00,,,0.00,meteohub,2013-10-25 03:07:00,
2013-10-24 20:12:00,51.8,41.9,30.05,South,180,1.0,2.0,69,0.00,,,0.00,meteohub,2013-10-25 03:12:00,
2013-10-24 20:17:00,51.6,42.1,30.06,South,180,1.0,1.0,70,0.00,,,0.00,meteohub,2013-10-25 03:17:00,
2013-10-24 20:22:00,51.3,41.9,30.06,South,180,0.0,1.0,70,0.00,,,0.00,meteohub,2013-10-25 03:22:00,
2013-10-24 20:27:00,51.1,41.7,30.06,South,180,1.0,1.0,70,0.00,,,0.00,meteohub,2013-10-25 03:27:00,
2013-10-24 20:32:00,50.9,41.9,30.06,South,180,0.0,1.0,71,0.00,,,0.00,meteohub,2013-10-25 03:32:00,
2013-10-24 20:37:00,50.7,41.7,30.06,SW,225,2.0,2.0,71,0.00,,,0.00,meteohub,2013-10-25 03:37:00,
2013-10-24 20:42:00,50.4,41.4,30.06,SW,225,2.0,2.0,71,0.00,,,0.00,meteohub,2013-10-25 03:42:00,
2013-10-24 20:47:00,49.8,41.2,30.07,SW,225,1.0,2.0,72,0.00,,,0.00,meteohub,2013-10-25 03:47:00,
2013-10-24 20:52:00,49.5,41.2,30.07,SW,225,0.0,2.0,73,0.00,,,0.00,meteohub,2013-10-25 03:52:00,
2013-10-24 20:57:00,49.5,41.2,30.07,SW,225,0.0,2.0,73,0.00,,,0.00,meteohub,2013-10-25 03:57:00,
2013-10-24 21:01:00,49.3,41.0,30.06,SW,225,2.0,2.0,73,0.00,,,0.00,meteohub,2013-10-25 04:01:00,
2013-10-24 21:02:00,49.3,41.0,30.07,SW,225,2.0,2.0,73,0.00,,,0.00,meteohub,2013-10-25 04:02:00,
2013-10-24 21:05:00,48.9,40.6,30.07,SW,225,1.0,1.0,73,0.00,,,0.00,meteohub,2013-10-25 04:05:00,
2013-10-24 21:07:00,48.7,40.8,30.07,SW,225,2.0,2.0,74,0.00,,,0.00,meteohub,2013-10-25 04:07:00,
2013-10-24 21:12:00,48.2,40.3,30.07,SW,225,2.0,2.0,74,0.00,,,0.00,meteohub,2013-10-25 04:12:00,
2013-10-24 21:17:00,47.8,40.3,30.07,SW,225,2.0,2.0,75,0.00,,,0.00,meteohub,2013-10-25 04:17:00,
2013-10-24 21:22:00,47.7,40.5,30.07,SW,225,2.0,2.0,76,0.00,,,0.00,meteohub,2013-10-25 04:22:00,
2013-10-24 21:27:00,47.7,40.5,30.07,SW,225,2.0,2.0,76,0.00,,,0.00,meteohub,2013-10-25 04:27:00,
2013-10-24 21:32:00,47.5,40.6,30.07,SW,225,2.0,2.0,77,0.00,,,0.00,meteohub,2013-10-25 04:32:00,
2013-10-24 21:37:00,46.9,40.1,30.08,SW,225,1.0,2.0,77,0.00,,,0.00,meteohub,2013-10-25 04:37:00,
2013-10-24 21:42:00,46.6,39.7,30.08,SW,225,1.0,2.0,77,0.00,,,0.00,meteohub,2013-10-25 04:42:00,
2013-10-24 21:47:00,46.4,39.6,30.08,SW,225,0.0,2.0,77,0.00,,,0.00,meteohub,2013-10-25 04:47:00,
2013-10-24 21:52:00,46.2,39.7,30.09,South,180,1.0,2.0,78,0.00,,,0.00,meteohub,2013-10-25 04:52:00,
2013-10-24 21:57:00,45.9,39.7,30.08,South,180,1.0,2.0,79,0.00,,,0.00,meteohub,2013-10-25 04:57:00,
2013-10-24 22:02:00,45.7,39.6,30.09,East,90,0.0,1.0,79,0.00,,,0.00,meteohub,2013-10-25 05:02:00,
2013-10-24 22:07:00,45.7,39.6,30.09,East,90,0.0,2.0,79,0.00,,,0.00,meteohub,2013-10-25 05:07:00,
2013-10-24 22:12:00,45.5,39.7,30.09,East,90,0.0,2.0,80,0.00,,,0.00,meteohub,2013-10-25 05:12:00,
2013-10-24 22:17:00,45.3,39.6,30.09,East,90,0.0,2.0,80,0.00,,,0.00,meteohub,2013-10-25 05:17:00,
2013-10-24 22:22:00,45.0,39.2,30.09,East,90,0.0,1.0,80,0.00,,,0.00,meteohub,2013-10-25 05:22:00,
2013-10-24 22:27:00,44.8,39.0,30.09,East,90,0.0,0.0,80,0.00,,,0.00,meteohub,2013-10-25 05:27:00,
2013-10-24 22:32:00,44.4,39.0,30.09,East,90,0.0,0.0,81,0.00,,,0.00,meteohub,2013-10-25 05:32:00,
2013-10-24 22:37:00,44.1,38.8,30.09,East,90,0.0,0.0,82,0.00,,,0.00,meteohub,2013-10-25 05:37:00,
2013-10-24 22:42:00,43.9,38.7,30.10,SW,225,2.0,2.0,82,0.00,,,0.00,meteohub,2013-10-25 05:42:00,
2013-10-24 22:47:00,43.9,38.7,30.09,SW,225,2.0,2.0,82,0.00,,,0.00,meteohub,2013-10-25 05:47:00,
2013-10-24 22:52:00,43.5,38.7,30.10,SW,225,0.0,2.0,83,0.00,,,0.00,meteohub,2013-10-25 05:52:00,
2013-10-24 22:57:00,43.3,38.5,30.09,SE,135,1.0,2.0,83,0.00,,,0.00,meteohub,2013-10-25 05:57:00,
2013-10-24 23:04:00,43.2,38.7,30.09,SE,135,1.0,2.0,84,0.00,,,0.00,meteohub,2013-10-25 06:04:00,
2013-10-24 23:10:00,43.2,38.7,30.10,East,90,0.0,2.0,84,0.00,,,0.00,meteohub,2013-10-25 06:10:00,
2013-10-24 23:16:00,43.0,38.5,30.10,South,180,1.0,2.0,84,0.00,,,0.00,meteohub,2013-10-25 06:16:00,
2013-10-24 23:22:00,43.0,38.5,30.10,South,180,1.0,2.0,84,0.00,,,0.00,meteohub,2013-10-25 06:22:00,
2013-10-24 23:27:00,43.0,38.5,30.10,SE,135,2.0,2.0,84,0.00,,,0.00,meteohub,2013-10-25 06:27:00,
2013-10-24 23:32:00,43.0,38.8,30.10,SE,135,2.0,2.0,85,0.00,,,0.00,meteohub,2013-10-25 06:32:00,
2013-10-24 23:37:00,43.2,39.0,30.10,SE,135,2.0,2.0,85,0.00,,,0.00,meteohub,2013-10-25 06:37:00,
2013-10-24 23:42:00,43.0,38.8,30.10,SE,135,0.0,2.0,85,0.00,,,0.00,meteohub,2013-10-25 06:42:00,
2013-10-24 23:47:00,42.8,38.3,30.10,SE,135,0.0,2.0,84,0.00,,,0.00,meteohub,2013-10-25 06:47:00,
2013-10-24 23:52:00,42.4,38.3,30.10,SE,135,1.0,2.0,85,0.00,,,0.00,meteohub,2013-10-25 06:52:00,
2013-10-24 23:57:00,42.3,38.1,30.10,SE,135,0.0,1.0,85,0.00,,,0.00,meteohub,2013-10-25 06:57:00,